SCP
0 0 0 0 0 0 0 0 0 0 1 1 1 1 1 1 1 1 1 1 1 1 1 1 1 1 1 2 2 3 3 2 2 1 1 1 1 1 1 1 1 1 1 1
0 0 0 0 0 0 0 0 0 0 1 1 1 1 1 1 1 1 1 1 1 1 1 1 1 1 1 2 2 3 3 3 2 2 1 1 1 1 1 1 1 1 1 1
0 0 0 0 0 0 0 0 0 0 0 1 1 0 0 1 1 1 1 1 1 1 1 1 1 1 2 2 2 3 3 3 3 2 2 1 1 1 1 1 1 1 1 1
0 0 0 0 0 0 0 0 0 0 0 0 0 0 0 0 1 1 1 1 1 1 1 1 1 2 2 2 3 3 3 3 3 2 2 1 1 1 1 1 1 1 1 1
0 0 0 0 0 0 0 0 0 0 0 0 0 0 0 0 0 1 1 1 2 1 1 1 1 2 3 3 3 4 4 3 2 2 2 1 1 1 1 1 1 1 1 1
0 0 0 0 0 0 0 0 0 0 0 0 0 0 0 0 0 0 1 1 1 1 1 1 1 2 3 3 4 4 3 3 2 2 2 1 1 1 1 1 1 1 1 1
0 0 0 0 0 0 0 0 0 0 0 0 0 0 0 0 0 0 1 1 1 1 1 1 1 2 3 4 4 3 3 2 2 2 1 1 1 1 1 1 1 1 1 1
0 0 0 0 0 0 0 0 0 0 0 0 0 0 0 0 1 1 0 1 1 1 1 1 1 2 4 4 3 2 2 2 2 2 1 1 1 1 1 1 1 1 1 1
0 0 0 0 0 0 0 0 0 0 0 0 0 0 0 1 1 1 1 1 1 1 1 1 1 2 3 4 3 2 2 2 2 2 2 1 1 2 1 1 1 1 1 1
0 0 0 0 0 0 0 0 0 0 0 0 0 0 0 1 1 1 1 1 1 1 1 1 2 2 3 3 3 2 2 2 3 3 2 2 2 2 1 1 1 1 1 1
0 0 0 0 0 0 0 0 0 0 0 0 0 0 0 0 0 1 1 1 1 1 1 2 2 3 3 4 4 3 3 3 3 3 3 2 2 2 1 1 1 1 1 1
0 0 0 0 0 0 0 0 0 0 0 0 0 0 0 0 0 1 1 1 1 1 1 2 3 3 3 4 4 3 3 3 4 4 3 3 2 2 1 1 1 1 1 1
0 0 0 0 0 0 0 0 0 0 0 0 0 0 0 0 0 1 1 1 1 1 2 3 3 4 4 4 4 4 3 3 4 3 3 2 2 2 1 1 1 1 1 1
0 0 0 0 0 0 0 0 0 0 1 1 0 0 0 0 0 1 1 1 1 1 2 4 5 5 5 5 5 4 4 3 3 3 3 2 2 2 2 2 2 2 2 2
0 0 0 0 0 0 0 0 0 0 0 0 0 0 0 0 0 1 1 2 2 2 4 7 8 7 6 6 6 5 4 4 4 3 3 3 2 2 2 2 2 2 2 2
0 0 0 0 0 0 0 0 0 0 0 0 0 0 0 1 1 1 2 2 3 3 5 9 10 8 6 6 6 5 4 4 4 4 4 3 3 3 3 3 3 3 3 3
0 0 0 0 0 0 0 1 1 1 1 0 0 0 1 1 2 2 2 2 2 3 5 8 9 8 5 4 4 4 3 4 5 5 4 4 4 4 3 3 3 3 3 3
0 0 0 0 0 0 1 1 1 1 1 1 1 1 1 2 2 2 2 2 2 3 4 6 8 6 3 2 3 3 3 4 5 5 5 4 4 4 4 3 3 3 4 4
0 0 0 0 1 1 1 1 1 1 1 1 1 1 2 2 2 2 1 2 2 3 4 5 6 5 2 2 2 3 3 4 4 5 5 4 4 5 4 4 3 3 4 4
0 0 0 0 1 1 1 1 0 1 1 1 1 1 2 2 2 1 2 3 3 4 5 5 5 4 3 3 3 4 4 3 4 4 4 4 4 4 4 3 3 3 3 3
0 0 0 0 0 0 0 0 0 1 1 1 1 1 1 2 2 3 4 4 5 6 6 6 6 5 4 4 4 5 4 3 3 3 3 3 3 3 3 2 2 2 2 3
0 0 0 0 0 0 0 0 0 1 1 1 1 1 2 3 4 5 6 6 7 8 8 8 7 6 5 4 5 5 5 4 3 2 2 2 2 2 2 2 2 2 2 2
0 0 0 1 1 1 1 1 1 1 1 2 2 2 3 5 6 7 6 6 7 8 8 8 7 6 6 5 5 5 5 5 4 2 2 2 2 2 2 2 1 1 1 1
1 1 1 2 1 1 1 2 2 2 2 2 2 3 4 6 6 6 5 5 6 7 7 7 6 6 6 5 5 5 6 7 5 3 2 2 3 2 2 2 1 1 1 1
1 2 2 2 2 2 2 2 2 2 2 2 2 2 4 5 5 5 4 5 6 7 7 6 6 5 5 4 3 4 6 7 6 3 2 3 3 2 2 1 1 0 0 0
2 2 2 2 2 2 2 2 2 2 2 2 2 2 3 4 4 4 4 5 6 7 7 6 5 4 4 3 3 4 6 7 5 3 2 2 2 2 2 1 0 0 0 0
Wind_Speed
2 3 2 5 6 4 4 3 3 4 2 3 2 2 2 3 4 4 3 4 4 5 4 3 3 4 4 3 3 3 3 2 2 2 2 2 1 1 2 2 3 3 2 2
3 2 6 3 3 4 3 2 2 3 1 2 1 1 1 3 4 5 6 6 6 4 3 3 4 4 4 4 4 3 3 3 3 2 2 2 2 2 2 2 3 3 3 2
5 5 2 2 2 2 2 4 4 2 2 3 3 3 2 1 1 2 3 4 5 6 6 5 5 5 4 4 5 4 3 3 3 3 3 3 3 2 2 3 2 3 3 3
4 4 2 2 3 4 4 4 5 3 3 1 2 2 5 2 2 3 4 5 6 6 5 5 6 5 5 5 4 4 4 3 3 3 4 4 3 2 1 0 1 2 2 2
5 2 2 3 5 5 4 2 3 3 3 2 2 1 6 1 3 5 6 5 6 6 6 6 6 6 5 5 4 4 4 3 2 3 4 4 3 2 1 1 2 2 2 2
5 3 4 5 2 4 4 6 6 6 5 1 2 2 6 3 5 5 5 5 5 5 5 5 4 4 4 4 4 4 4 3 3 3 3 4 4 3 3 2 1 1 1 2
4 4 2 2 2 2 4 6 4 4 3 4 1 2 8 6 4 5 5 5 4 5 5 6 6 6 6 6 5 4 4 3 3 3 3 3 3 3 3 2 1 1 1 1
2 5 3 2 5 6 4 7 7 5 4 4 2 4 7 4 2 2 3 3 3 3 4 5 6 6 6 7 6 6 5 4 3 3 3 3 3 2 2 2 1 1 1 1
5 6 4 2 2 7 6 3 5 7 2 0 4 5 7 1 2 1 1 2 3 3 3 4 5 6 6 6 6 6 6 4 3 3 3 2 2 2 2 2 1 1 1 1
7 3 4 2 3 3 4 8 6 6 5 2 4 4 5 4 2 1 1 2 1 2 3 3 4 5 5 5 5 5 5 5 4 3 3 2 2 2 2 2 1 1 0 0
5 4 3 2 2 3 3 4 5 5 5 6 3 7 5 6 4 4 2 2 3 3 4 4 3 4 4 4 5 4 4 4 3 3 2 2 2 2 2 1 1 1 0 1
4 5 2 4 3 1 3 5 7 5 3 4 4 7 3 3 3 3 3 2 2 2 3 4 4 4 4 4 4 4 3 3 3 3 3 2 2 2 2 1 0 0 0 0
6 6 2 4 4 2 2 2 3 6 6 4 4 6 2 1 1 2 3 2 2 2 3 4 4 4 4 4 4 4 3 3 3 3 3 2 2 2 2 2 1 0 0 0
6 5 6 8 7 3 1 2 4 5 4 4 6 5 4 1 2 2 3 3 3 3 4 4 4 3 3 3 4 4 3 3 4 4 3 3 2 2 1 1 1 1 0 0
5 4 3 3 3 3 3 3 4 4 6 7 6 6 7 5 4 4 4 4 3 3 3 4 4 3 3 3 3 3 3 3 4 4 3 2 2 1 1 1 1 0 0 0
4 4 2 1 1 2 1 1 3 3 3 3 2 4 4 1 2 2 3 4 4 3 3 3 3 4 3 3 3 3 3 3 3 4 3 2 2 2 1 1 1 1 1 1
2 5 4 3 2 2 2 3 3 3 3 5 6 6 3 2 3 3 3 3 4 3 3 4 3 4 4 4 4 4 3 3 3 3 2 1 2 2 1 1 1 1 0 1
5 5 4 3 3 3 7 2 3 4 1 2 3 3 4 4 3 2 2 3 3 2 3 3 3 3 3 3 3 4 4 3 3 2 2 1 2 2 2 1 1 1 1 1
4 7 5 4 3 3 4 1 3 4 2 2 4 3 4 4 4 3 1 2 2 2 2 3 3 3 4 4 4 5 4 3 2 1 1 1 2 2 2 2 2 1 1 0
5 4 6 4 4 6 6 3 1 4 2 3 4 6 5 5 2 2 0 2 3 3 3 3 3 4 4 3 4 5 4 3 1 1 1 1 1 2 2 2 2 1 1 0
3 4 4 4 3 6 5 4 2 4 7 3 5 6 6 5 4 3 3 3 4 4 5 5 5 5 3 3 5 5 3 1 1 1 2 2 1 1 2 1 1 1 1 1
4 3 3 4 3 6 3 2 4 6 2 2 5 5 6 5 4 5 4 4 5 5 5 5 5 4 3 4 5 5 2 1 1 2 2 2 1 1 2 2 1 1 2 1
3 4 5 5 5 4 2 3 3 2 2 2 4 5 8 6 5 5 4 4 4 4 4 4 5 4 3 3 3 4 2 1 2 3 2 2 2 2 2 2 2 1 1 1
1 1 3 1 3 3 2 2 1 1 2 2 4 6 7 7 6 5 5 4 4 3 3 3 5 4 2 1 1 2 1 2 3 3 2 2 2 2 2 1 1 1 1 1
2 1 2 1 2 2 3 2 1 2 3 4 4 4 6 8 6 5 5 4 3 3 2 3 4 3 2 1 1 1 1 2 3 3 2 1 1 2 1 1 0 1 1 2
3 4 4 4 5 3 3 2 1 2 3 4 5 4 4 6 6 5 5 3 3 3 3 3 3 3 2 2 1 1 1 2 3 3 2 1 1 1 1 1 1 2 1 1
Wind_Direction
62 77 221 226 198 191 176 200 250 261 238 137 195 252 241 175 165 177 186 189 197 205 201 171 165 154 136 128 129 135 130 121 111 99 95 84 65 49 45 46 45 47 51 63
38 273 240 222 175 165 175 207 266 311 25 116 119 296 251 182 191 192 194 198 200 200 175 171 168 159 158 155 152 146 144 138 133 127 123 116 108 86 68 40 42 43 48 54
195 237 223 159 155 148 209 194 206 204 31 45 69 342 306 254 202 191 200 200 198 199 195 186 181 172 161 163 165 159 154 144 136 124 105 92 72 55 48 39 26 23 41 54
235 251 207 206 228 169 251 216 174 159 114 328 87 282 283 251 265 222 216 204 203 207 196 182 176 173 171 168 159 147 147 142 136 129 124 127 122 115 112 85 44 26 40 50
243 217 182 221 230 177 212 117 111 116 115 54 17 172 284 316 255 244 227 210 198 200 190 183 181 174 163 152 151 144 138 131 124 128 136 126 115 117 99 75 58 35 28 40
250 235 200 206 192 148 133 67 54 50 69 6 255 188 277 241 233 246 227 213 194 186 182 173 163 146 144 138 133 134 133 130 128 128 130 136 139 135 118 98 75 32 18 22
308 296 249 164 111 67 102 93 44 7 11 262 263 213 253 255 245 230 224 215 193 178 175 169 164 161 157 148 146 145 143 142 141 135 135 145 152 151 151 150 139 116 31 0
211 285 263 191 176 175 170 144 157 187 214 273 308 245 258 275 286 240 186 172 142 159 170 175 174 168 164 159 157 154 159 161 164 156 156 152 156 157 156 159 152 161 196 248
182 254 281 231 178 142 142 163 155 126 127 6 284 290 301 319 11 47 106 117 137 164 171 169 161 162 163 166 167 166 164 164 167 163 153 150 155 152 152 154 147 163 224 197
162 228 284 311 71 38 130 140 107 118 142 219 290 282 256 264 264 279 207 153 175 158 147 148 156 160 164 169 164 159 161 164 158 156 166 166 165 152 145 144 150 170 202 109
144 170 297 24 134 180 108 98 104 110 143 151 221 267 233 214 207 205 211 184 180 172 159 151 151 152 146 142 144 151 158 151 154 161 157 145 151 144 134 145 163 180 190 164
150 131 229 265 267 199 137 147 143 146 184 162 169 262 289 205 196 175 178 184 163 152 148 138 131 129 130 132 136 146 156 160 164 150 139 141 135 132 138 154 174 154 191 201
139 119 91 342 342 10 80 119 128 119 114 146 166 257 319 56 139 159 162 162 141 125 120 121 124 134 141 141 140 137 155 166 148 137 135 134 140 150 166 174 176 156 136 359
120 115 159 191 214 199 164 143 143 125 140 182 214 236 283 270 202 191 165 164 153 131 124 124 128 136 138 141 147 147 150 146 141 140 144 157 170 179 181 166 173 196 185 152
111 136 180 205 208 166 161 172 165 172 180 179 211 214 240 227 205 194 170 157 142 135 134 138 139 138 136 134 135 143 144 140 140 136 148 173 165 149 131 131 154 141 120 216
90 140 145 216 202 160 105 236 183 182 169 184 179 243 245 208 122 144 154 155 160 168 159 149 139 137 144 149 148 144 148 144 136 139 156 153 134 137 139 144 112 80 50 39
110 130 132 222 274 82 281 248 193 178 185 175 198 224 180 143 155 175 172 161 171 173 166 162 160 156 157 161 153 150 154 136 127 131 140 156 153 154 167 162 127 126 92 54
140 121 128 139 97 205 241 258 172 150 182 197 196 198 174 165 144 114 123 156 163 161 163 167 163 159 159 146 135 129 116 111 118 129 144 158 156 156 148 133 133 142 144 140
144 135 122 128 159 249 284 243 167 157 258 249 194 169 129 118 85 40 39 127 146 149 152 160 156 148 137 132 126 115 108 104 107 137 154 165 167 163 151 153 176 175 158 176
64 93 113 125 149 213 241 272 207 119 266 260 181 165 151 121 125 248 179 101 95 87 88 104 104 101 104 104 110 111 113 115 136 163 155 133 149 153 163 174 168 147 141 205
50 55 105 141 182 250 265 289 113 160 233 216 168 161 153 161 181 160 115 97 94 85 85 93 95 94 100 110 113 109 102 113 187 138 115 115 137 142 133 116 104 110 98 75
156 139 157 139 166 248 297 113 165 215 240 147 149 152 145 134 117 112 109 104 94 84 82 91 92 85 85 101 109 105 110 202 119 101 105 110 115 117 101 102 86 88 92 77
175 183 176 178 205 247 283 235 249 187 166 169 150 148 139 133 136 127 121 117 107 102 98 97 100 91 74 87 117 129 175 145 115 105 110 113 95 74 86 110 108 88 81 78
282 129 128 203 274 292 310 327 340 146 164 159 149 146 142 141 145 137 134 130 118 105 106 106 104 97 81 71 101 127 129 118 119 116 116 119 105 81 66 73 94 111 119 94
227 146 119 235 274 338 345 341 18 66 84 103 112 130 142 137 144 147 143 142 138 124 112 118 124 126 132 107 95 98 112 116 121 115 106 108 117 125 94 60 75 150 199 180
212 180 171 217 222 187 244 279 29 91 103 121 121 116 131 143 149 144 147 151 146 144 133 129 134 136 145 132 110 91 108 124 124 121 121 128 137 132 126 97 25 23 30 33